Location: Cz?stochówka
(50.8142°N, 19.0915°E)
Time: 20:39:11
(UTC+00:00)

NOSS 8 (E) - Pass Details

Date: 13 January 2026
Orbit: 364 x 1530 km, 63.3° (Epoch: 13 February)

Event Time Altitude Azimuth Distance (km) Brightness Sun altitude
Exits shadow 05:25:02 18° 315° (NW) 1,017 5.6 -11.5°
Maximum altitude 05:27:07 87° 227° (SW) 396 4.0 -11.2°
Drops below altitude 10° 05:30:25 10° 138° (SE) 1,547 8.2 -10.7°
Sets 05:32:43 0° 138° (SE) 2,542 9.5 -10.4°
